Weather History for KDIK - April, 2013

Change the Weather History Date:

Saturday, April 20, 2013

  Actual Average Record
Temperature  
Mean Temperature 30 °F 44 °F  
Max Temperature 34 °F 58 °F 92 °F (1980)
Min Temperature 25 °F 31 °F 11 °F (2011)
Degree Days  
Heating Degree Days 35 21  
Month to date heating degree days 682 493  
Since 1 July heating degree days 7866 7873  
Cooling Degree Days 0 0  
Month to date cooling degree days 0 0  
Year to date cooling degree days 0 0  
Moisture  
Dew Point 25 °F    
Average Humidity 79    
Maximum Humidity 89    
Minimum Humidity 68    
Precipitation  
Precipitation 0.02 in 0.05 in 1.29 in (1971)
Month to date precipitation 0.58 0.87  
Year to date precipitation 1.01 2.19  
Sea Level Pressure  
Sea Level Pressure 29.97 in    
Wind  
Wind Speed 19 mph (SSE)    
Max Wind Speed 31 mph    
Max Gust Speed 36 mph    
Visibility 8 miles    
Events Rain , Snow    
T = Trace of Precipitation, MM = Missing Value Source: NWS Daily Summary

Daily Weather History Graph

Daily Weather History Graph

Search for Another Location

Airport or City:

Trip Planner

Search our weather history database for the weather conditions in past years. The results will help you decide how hot, cold, wet, or windy it might be!

Date:

Astronomy

Apr. 20, 2013 Rise Set
Actual Time 5:54 AM MDT 7:46 PM MDT
Civil Twilight 5:21 AM MDT 8:19 PM MDT
Nautical Twilight 4:42 AM MDT 8:59 PM MDT
Astronomical Twilight 3:58 AM MDT 9:43 PM MDT
Moon 2:14 PM MDT (4/20) 3:04 AM MDT (4/20)
Length of Visible Light 14h 57m
Length of Day
13h 52m
Waxing Gibbous, 71% of the Moon is Illuminated
Apr 20
Waxing Gibbous
Apr 25
Full
May 2
Last Quarter
May 9
New
May 17
First Quarter

Hourly Weather History & Observations

Time (MDT) Temp. Windchill Dew Point Humidity Pressure Visibility Wind Dir Wind Speed Gust Speed Precip Events Conditions
12:56 AM 25.0 °F 12.6 °F 17.1 °F 72% 30.06 in 10.0 mi SSE 15.0 mph - N/A   Overcast
1:56 AM 25.0 °F 12.6 °F 17.1 °F 72% 30.05 in 10.0 mi SSE 15.0 mph - N/A   Mostly Cloudy
2:56 AM 25.0 °F 11.3 °F 17.1 °F 72% 30.04 in 10.0 mi SSE 18.4 mph - N/A   Overcast
3:56 AM 25.0 °F 12.6 °F 17.1 °F 72% 30.03 in 10.0 mi SSE 15.0 mph - N/A   Overcast
4:56 AM 25.0 °F 10.9 °F 17.1 °F 72% 30.03 in 10.0 mi SSE 19.6 mph - N/A   Overcast
5:56 AM 25.0 °F 11.7 °F 16.0 °F 69% 30.03 in 10.0 mi SSE 17.3 mph - N/A   Overcast
6:56 AM 25.0 °F 11.7 °F 17.1 °F 72% 30.03 in 10.0 mi SSE 17.3 mph - N/A   Overcast
7:56 AM 26.1 °F 11.3 °F 19.9 °F 78% 30.03 in 9.0 mi SSE 23.0 mph 28.8 mph 0.00 in   Overcast
8:56 AM 26.1 °F 12.0 °F 21.0 °F 81% 30.02 in 6.0 mi SSE 20.7 mph - 0.00 in Snow Light Snow
9:52 AM 26.6 °F 11.1 °F 21.2 °F 80% 29.92 in 2.0 mi SSE 26.5 mph 35.7 mph 0.00 in Snow Light Snow
9:56 AM 27.0 °F 11.9 °F 23.0 °F 85% 30.01 in 2.0 mi SSE 25.3 mph 35.7 mph 0.00 in Snow Light Snow
10:09 AM 26.6 °F 12.0 °F 23.0 °F 86% 29.92 in 3.0 mi SSE 23.0 mph 32.2 mph 0.00 in Snow Light Snow
10:16 AM 26.6 °F 12.4 °F 23.0 °F 86% 29.93 in 3.0 mi SSE 21.9 mph 29.9 mph 0.00 in Snow Light Snow
10:56 AM 28.9 °F 15.1 °F 24.1 °F 82% 30.01 in 9.0 mi SSE 23.0 mph 31.1 mph 0.00 in   Overcast
11:56 AM 28.9 °F 14.3 °F 24.1 °F 82% 30.01 in 3.0 mi South 26.5 mph - 0.00 in Snow Light Snow
12:23 PM 30.2 °F 16.2 °F 24.8 °F 80% 29.92 in 7.0 mi South 25.3 mph 31.1 mph 0.00 in Snow Light Snow
12:56 PM 30.9 °F 17.5 °F 26.1 °F 82% 30.00 in 10.0 mi SSE 24.2 mph - 0.00 in   Overcast
1:56 PM 33.1 °F 21.9 °F 27.0 °F 78% 29.99 in 10.0 mi South 18.4 mph 29.9 mph N/A   Overcast
2:56 PM 34.0 °F 21.0 °F 28.0 °F 79% 29.97 in 10.0 mi South 26.5 mph 29.9 mph N/A   Overcast
3:56 PM 34.0 °F 21.5 °F 28.9 °F 82% 29.95 in 10.0 mi SSE 24.2 mph - N/A   Overcast
4:27 PM 33.8 °F 21.3 °F 28.4 °F 81% 29.86 in 10.0 mi South 24.2 mph - N/A   Overcast
4:49 PM 33.8 °F 22.8 °F 28.4 °F 81% 29.86 in 10.0 mi South 18.4 mph - N/A   Overcast
4:56 PM 34.0 °F 23.0 °F 28.9 °F 82% 29.94 in 10.0 mi South 18.4 mph - N/A   Overcast
5:56 PM 34.0 °F 22.1 °F 30.0 °F 85% 29.94 in 10.0 mi SSE 21.9 mph - N/A   Overcast
6:56 PM 33.1 °F 23.0 °F 30.0 °F 89% 29.95 in 10.0 mi SSE 15.0 mph - N/A   Overcast
7:35 PM 33.8 °F 23.5 °F 30.2 °F 87% 29.87 in 10.0 mi South 16.1 mph - N/A   Overcast
7:56 PM 33.1 °F 22.2 °F 30.9 °F 92% 29.95 in 10.0 mi South 17.3 mph - N/A   Overcast
8:56 PM 33.1 °F 23.0 °F 30.9 °F 92% 29.94 in 10.0 mi SSE 15.0 mph - N/A   Overcast
9:27 PM 33.8 °F 22.8 °F 30.2 °F 87% 29.86 in 9.0 mi South 18.4 mph - N/A   Overcast
9:56 PM 33.1 °F 21.9 °F 30.9 °F 92% 29.94 in 9.0 mi SSE 18.4 mph - N/A   Overcast
10:56 PM 33.1 °F 23.4 °F 30.9 °F 92% 29.93 in 5.0 mi South 13.8 mph - N/A   Overcast
11:56 PM 33.1 °F 22.6 °F 32.0 °F 96% 29.93 in 5.0 mi South 16.1 mph - 0.00 in Rain Light Rain